Zurück zum Katalog

STARLINK-35180

AktivKommunikationVLEO
NORAD 65462·PAYLOAD·🇺🇸 United States

Gestartet Sep 3, 2025 von Cape Canaveral Space Force Station

Loading…

Nächste Überflüge (nächste 24 Stunden)

TLE

AktuellSource: CelesTrak SupGP

Epoche: Sep 14, 2026, 21:02 UTC

1 65462C 25195E   26257.87687500 -.00049123  00000+0 -14516-2 0  2574
2 65462  53.1574  95.8785 0001265  86.9683 112.1469 15.34409459    15

Verfolge STARLINK-35180 in Echtzeit mit AllMySat

Download on the App Store